KT4FD Weather Reports


time (UTC)temp
C
wind
direction
speed
KPH
gust
KPH
rain 1hr
cm
rain 24hr
cm
rain mn
cm
humidity
%
barometer
mb
20260505091004 8 248 0.0 0.0 0.00 0.00 0.00 86 1017.4
20260505090003 8 248 0.0 1.6 0.00 0.00 0.00 86 1017.4
20260505085003 8 248 0.0 0.0 0.00 0.00 0.00 86 1017.4
20260505084003 8 248 0.0 1.6 0.00 0.00 0.00 86 1017.5
20260505083004 8 248 0.0 1.6 0.00 0.00 0.00 86 1017.5
20260505082003 8 248 0.0 1.6 0.00 0.00 0.00 86 1017.5
20260505081004 8 248 0.0 1.6 0.00 0.00 0.00 86 1017.5
20260505080003 8 248 0.0 3.2 0.00 0.00 0.00 86 1017.3
20260505075003 8 249 1.6 3.2 0.00 0.00 0.00 86 1017.4
20260505074003 8 248 0.0 0.0 0.00 0.00 0.00 86 1017.4
20260505073004 8 248 0.0 0.0 0.00 0.00 0.00 86 1017.4
20260505072004 8 248 0.0 0.0 0.00 0.00 0.00 86 1017.4
20260505071003 8 248 0.0 0.0 0.00 0.00 0.00 86 1017.4
20260505070004 9 248 0.0 0.0 0.00 0.00 0.00 86 1017.3
20260505065003 9 248 0.0 0.0 0.00 0.00 0.00 85 1017.4
20260505064003 9 248 0.0 0.0 0.00 0.00 0.00 85 1017.4
20260505063004 10 249 0.0 3.2 0.00 0.00 0.00 84 1017.4
20260505062003 10 249 0.0 0.0 0.00 0.00 0.00 84 1017.5
20260505061003 10 249 0.0 0.0 0.00 0.00 0.00 84 1017.7
20260505041004 10 248 0.0 0.0 0.00 0.00 0.00 84 1017.8
20260505040005 11 248 0.0 0.0 0.00 0.00 0.00 84 1017.8
20260505035003 11 248 0.0 0.0 0.00 0.00 0.00 83 1017.8
20260505034004 11 248 0.0 0.0 0.00 0.00 0.00 83 1017.9
20260505033004 11 248 0.0 0.0 0.00 0.00 0.00 83 1017.9
20260505032004 11 248 0.0 0.0 0.00 0.00 0.00 83 1017.9
20260505031004 11 248 0.0 0.0 0.00 0.00 0.00 83 1018.0
20260505015003 13 248 0.0 0.0 0.00 0.00 0.00 78 1017.6
20260505014004 14 248 0.0 3.2 0.00 0.00 0.00 77 1017.3
20260505013004 15 248 1.6 3.2 0.00 0.00 0.00 75 1017.1
20260505012004 15 248 0.0 3.2 0.00 0.00 0.00 74 1017.0
20260505011004 16 248 0.0 0.0 0.00 0.00 0.00 73 1017.0
20260505010002 16 248 0.0 0.0 0.00 0.00 0.00 72 1017.1
20260504214003 23 196 8.0 14.5 0.00 0.00 0.00 44 1016.7
20260504213003 23 222 8.0 14.5 0.00 0.00 0.00 45 1016.6
20260504212002 23 252 4.8 12.9 0.00 0.00 0.00 47 1016.6
20260504211002 23 215 6.4 16.1 0.00 0.00 0.00 45 1016.6
20260504210003 23 209 4.8 12.9 0.00 0.00 0.00 44 1016.7
20260504205003 23 215 8.0 19.3 0.00 0.00 0.00 45 1016.6
20260504204002 23 204 4.8 12.9 0.00 0.00 0.00 47 1016.8
20260504203002 24 203 9.7 19.3 0.00 0.00 0.00 42 1016.9
20260504202002 23 246 9.7 14.5 0.00 0.00 0.00 44 1017.0
20260504201002 23 244 9.7 19.3 0.00 0.00 0.00 45 1017.1
20260504200003 23 167 6.4 19.3 0.00 0.00 0.00 45 1017.2
20260504195002 23 214 9.7 14.5 0.00 0.00 0.00 45 1017.3
20260504193003 23 230 8.0 19.3 0.00 0.00 0.00 50 1017.4
20260504192003 23 208 8.0 12.9 0.00 0.00 0.00 48 1017.6
20260504191002 23 197 4.8 19.3 0.00 0.00 0.00 50 1017.6
20260504190002 23 224 8.0 16.1 0.00 0.00 0.00 48 1017.7
20260504185003 23 219 9.7 14.5 0.00 0.00 0.00 47 1017.8
20260504184003 23 220 6.4 12.9 0.00 0.00 0.00 49 1018.0
20260504183002 23 207 9.7 16.1 0.00 0.00 0.00 46 1018.1
20260504182002 23 202 4.8 24.1 0.00 0.00 0.00 46 1018.2
20260504181002 22 215 8.0 19.3 0.00 0.00 0.00 47 1018.4
20260504180002 22 226 12.9 20.9 0.00 0.00 0.00 43 1018.5
20260504175002 22 218 6.4 19.3 0.00 0.00 0.00 49 1018.6
20260504174002 22 257 8.0 12.9 0.00 0.00 0.00 47 1018.8
20260504151003 18 262 8.0 19.3 0.00 0.00 0.00 55 1020.4
20260504141002 16 277 8.0 19.3 0.00 0.00 0.00 57 1020.6